User: anonymous   Login
Location: Skalnate Pleso
(49.1889°N, 20.2450°E)
Time: 22:37:11
(UTC+02:00)
Language:

Iridium 45 - Orbit

View from above orbital plane
View from above orbital plane
View from above satellite
View from above satellite

Ground track
Ground track

The orbit data is extracted from the following two-line orbital elements,

1 25104U 97082A   16183.19608349  .00000174  00000-0  54985-4 0  9994
2 25104  86.3963  73.9891 0002781  59.1300 301.0169 14.34216049970068
Epoch (UTC): 01 July 2016 04:42:21
Eccentricity: 0.0002781
inclination: 86.3963°
perigee height: 775 km
apogee height: 779 km
right ascension of ascending node: 73.9891°
argument of perigee: 59.1300°
revolutions per day: 14.34216049
mean anomaly at epoch: 301.0169°
orbit number at epoch: 97006

The dashed part of the orbit path shows where the satellite is in the earth's shadow,  

DLR